Flag for Colombia Weather past 2 weeks in Barranquilla, Colombia

Now
90 °F

Passing clouds.


Feels Like: 103 °F
Forecast: 80 / 89 °F
Wind: 9 mph from North

Location: Barranquilla / Ernestocortissoz

Current Time: Aug 3, 2015 at 1:14:47 PM

Latest Report: Aug 3, 2015 at 12:00 PM


Visibility: N/A

Pressure: 29.77 "Hg

Humidity: 67%

Dew point: 77 °F

Location of BarranquillaLocation

Historic Weather in Barranquilla — Graph

°F

Barranquilla temperature yesterday

Maximum temperature yesterday: 95 °F (at 12:00 PM)
Minimum temperature yesterday: 81 °F (at 12:00 AM)
Average temperature yesterday: 85 °F

Past Weeks' High & Low Weather Summary

 TemperatureHumidityPressure
High97 °F (Jul 31, 12:00 PM)100% (Jul 20, 5:00 AM)29.95 "Hg (Jul 20, 5:00 AM)
Low77 °F (Jul 20, 4:00 AM)53% (Jul 25, 2:00 PM)29.71 "Hg (Jul 25, 4:00 PM)
Average84 °F80%29.82 "Hg
* Reported Jul 19 12:00 Noon — Aug 3 12:00 Noon, Barranquilla, Weather by CustomWeather, © 2015

Note: Actual official high and low records may vary slightly from our data, if they occured in-between our weather recording intervals... More about our weather records

Advertising

Barranquilla weather history for previous 24 hours

 ConditionsComfort  
Time TempWeatherWind HumidityBarometerVisibility
12:00 PM
Mon, Aug 3
90 °FPassing clouds.9 mph67%29.77 "HgN/A
11:00 AM90 °FPassing clouds.15 mph63%29.78 "HgN/A
10:00 AM90 °FSunny.5 mph67%29.78 "Hg10 mi
9:00 AM88 °FSunny.6 mph70%29.78 "Hg10 mi
8:00 AM86 °FSunny.10 mph75%29.78 "Hg10 mi
7:00 AM81 °FSunny.9 mph89%29.77 "Hg10 mi
6:00 AM81 °FScattered clouds.5 mph84%29.75 "Hg5 mi
5:00 AM81 °FPassing clouds.7 mph84%29.74 "HgN/A
4:00 AM81 °FPassing clouds.5 mph84%29.75 "HgN/A
3:00 AM79 °FClear.7 mph89%29.74 "Hg10 mi
2:00 AM81 °FClear.12 mph84%29.74 "Hg10 mi
1:00 AM81 °FClear.8 mph84%29.76 "Hg10 mi
12:00 AM82 °FClear.13 mph79%29.76 "Hg10 mi
11:00 PM
Sun, Aug 2
82 °FClear.10 mph79%29.77 "Hg10 mi
10:00 PM82 °FClear.13 mph79%29.79 "Hg10 mi
9:00 PM82 °FPassing clouds.7 mph79%29.78 "HgN/A
8:00 PM82 °FPassing clouds.6 mph79%29.77 "HgN/A
7:00 PM82 °FPassing clouds.12 mph84%29.76 "HgN/A
6:00 PM84 °FSunny.9 mph79%29.74 "Hg10 mi
5:00 PM86 °FSunny.12 mph75%29.72 "Hg10 mi
4:00 PM88 °FPassing clouds.14 mph66%29.73 "HgN/A
3:00 PM91 °FPassing clouds.18 mph63%29.74 "HgN/A
2:00 PM91 °FPassing clouds.16 mph63%29.75 "HgN/A
1:00 PM91 °FPassing clouds.12 mph63%29.77 "HgN/A
Weather by CustomWeather, © 2015

See weather overviewHow to use our weather pages